Showing default

GONETS M 17, 46486

Orbit data source: Space-Track

GONETS M 17, 46486 is a payload satellite owned by Gonets (CIS) in LEO that was launched on Mon, 28 Sep 2020 UTC via a SOYUZ-2-1B launch vehicle from the Plesetsk Missile And Space Complex (PKMTR). Payload-class satellites include a variety of spacecraft equipped with specific instruments for various scientific and technological missions. These include communications satellites like Starlink; space stations such as the ISS; scientific satellites like the Hubble; Earth observation satellites from companies like Planet Labs, Umbra, and HawkEye 360; GPS; miniature CubeSats for education and research; and military/defense satellites.

Loading next visibility...
Identifier
46486, 2020-068A
Orbit
LEO
Country
Flag of CISCIS
Related business
Manufacturer
Resehetnev ISS
Mission
Operational Commercial Communications
Bus & Motor
STRELA-3M, Unknown motor
Mass
225 kg wet, 225 kg dry
Launch date (UTC)
2020-09-28 (5 years ago)
Launch vehicle
SOYUZ-2-1B
Launch site
Plesetsk Missile And Space Complex (PKMTR)
Object type
Payload
Rocket body
Debris
Shape & HBR
Cyl + 1 Ant, 3.5 m
Radar Cross Section
1.798 m², Large (>1 m²)

Expand to show TLE details & history
Last TLE update: 6 hours ago

TLE from 6 hours ago
0 GONETS M 17
1 46486U 20068A   25242.93229278  .00000052  00000-0  30444-3 0  9996
2 46486  82.5018 168.0616 0022232 312.0462  47.8726 12.42860419223100
Epoch: 2025-08-30T22:22Z
TLE epoch observation values (Epoch: 2025-08-30T22:22:30.096Z)
Latitude
0.00005°
Longitude
-146.92329°
Altitude
1,485.48 km
Speed
7.126 km/s
True Right ascension
11h 12m 14s
True Declination
0° 00' 00"
Sunlit
Object was in daylight at epoch
Visualization orbit readout
Latitude
Unknown
Longitude
Unknown
Altitude
Unknown
Speed
Unknown
Apparent Right ascension
Unknown
Apparent Declination
Unknown
Sunlit
N/A
Visualization observer readout
Local Sidereal Time
20:05:24
Azimuth
Unknown
Elevation
Unknown
Doppler factor
Unknown
Orbital elements
Apogee altitude
1,509.349 km
Perigee altitude
1,474.355 km
Semi-major axis
7,869.989 km
Eccentricity
0.00222
Inclination
82.5018°
RAAN
168.0616°
Arg. of periapsis
312.0462°
True anomaly
48.0619°
Mean anomaly
47.8726°
Eccentric anomaly
47.96721°
Mean motion
3.10872 °/min
Orbital period
115.8 mins
BSTAR
0.00030444
Loading maneuver chart data...
Computing Atmospheric mass density...
Loading historical data...
Loading historical data...
Loading historical data...
Loading historical data...
Loading historical data...
Loading historical data...
Loading historical data...

Documentation

Showing up to 5 results
|